Weather History for KQIR - November, 2012

Change the Weather History Date:

Saturday, November 3, 2012

  Actual Average Record
Temperature  
Mean Temperature 79 °F -  
Max Temperature 88 °F - - ()
Min Temperature 70 °F - - ()
Cooling Degree Days 14    
Growing Degree Days 29 (Base 50)    
Moisture  
Dew Point 61 °F    
Average Humidity 56    
Maximum Humidity 82    
Minimum Humidity 31    
Precipitation  
Precipitation 0.00 in - - ()
Sea Level Pressure  
Sea Level Pressure 29.93 in    
Wind  
Wind Speed 5 mph ()    
Max Wind Speed 10 mph    
Max Gust Speed -    
Visibility 6.2 miles    
Events      
T = Trace of Precipitation, MM = Missing Value Source: Averaged Metar Reports

Daily Weather History Graph

Daily Weather History Graph

Search for Another Location

Airport or City:

Trip Planner

Search our weather history database for the weather conditions in past years. The results will help you decide how hot, cold, wet, or windy it might be!

Date:

Astronomy

Nov. 03, 2012 Rise Set
Actual Time 5:43 AM AST 4:52 PM AST
Civil Twilight 5:20 AM AST 5:16 PM AST
Nautical Twilight 4:52 AM AST 5:43 PM AST
Astronomical Twilight 4:25 AM AST 6:10 PM AST
Moon 8:22 PM AST (11/3) 9:20 AM AST (11/3)
Length of Visible Light 11h 56m
Length of Day
11h 08m
Waning Gibbous, 82% of the Moon is Illuminated
Nov 3
Waning Gibbous
Nov 7
Last Quarter
Nov 14
New
Nov 20
First Quarter
Nov 28
Full

Hourly Weather History & Observations

Time (AST) Temp. Heat Index Dew Point Humidity Pressure Visibility Wind Dir Wind Speed Gust Speed Precip Events Conditions
12:55 AM 73.4 °F - 64.4 °F 73% 29.90 in 6.2 mi NW 4.6 mph - N/A   Clear
1:55 AM 72.3 °F - 64.0 °F 75% 29.90 in 6.2 mi NW 4.6 mph - N/A   Partly Cloudy
2:55 AM 71.8 °F - 64.2 °F 77% 29.91 in 6.2 mi WNW 6.9 mph - N/A   Scattered Clouds
3:55 AM 71.2 °F - 63.7 °F 77% 29.91 in 6.2 mi NW 5.8 mph - N/A   Clear
4:55 AM 70.2 °F - 63.5 °F 79% 29.92 in 6.2 mi NW 4.6 mph - N/A   Clear
5:55 AM 70.7 °F - 65.1 °F 82% 29.94 in 6.2 mi WNW 8.1 mph - N/A   Partly Cloudy
6:55 AM 72.7 °F - 65.7 °F 79% 29.96 in 6.2 mi NW 4.6 mph - N/A   Clear
7:55 AM 77.7 °F - 66.4 °F 68% 29.98 in 6.2 mi WNW 6.9 mph - N/A   Clear
8:55 AM 81.3 °F 82.3 °F 62.2 °F 52% 29.98 in 6.2 mi NNW 9.2 mph - N/A   Clear
9:55 AM 84.2 °F 82.9 °F 54.9 °F 36% 29.96 in 6.2 mi NW 6.9 mph - N/A   Clear
10:55 AM 86.0 °F - 52.0 °F 31% 29.96 in 6.2 mi NW 3.5 mph - N/A   Clear
11:55 AM 88.0 °F 85.9 °F 54.0 °F 31% 29.93 in 6.2 mi NW 3.5 mph - N/A   Scattered Clouds
12:55 PM 88.9 °F 86.9 °F 54.1 °F 31% 29.91 in 6.2 mi WNW 5.8 mph - N/A   Scattered Clouds
1:55 PM 88.9 °F 86.9 °F 54.1 °F 31% 29.90 in 6.2 mi North 5.8 mph - N/A   Scattered Clouds
2:55 PM 88.0 °F 86.1 °F 55.0 °F 32% 29.90 in 6.2 mi Calm Calm - N/A   Mostly Cloudy
3:55 PM 85.8 °F 86.1 °F 61.3 °F 44% 29.90 in 6.2 mi ENE 10.4 mph - N/A   Scattered Clouds
4:55 PM 84.2 °F 85.2 °F 63.3 °F 49% 29.91 in 6.2 mi ENE 8.1 mph - N/A   Partly Cloudy
5:55 PM 82.9 °F 84.8 °F 65.5 °F 55% 29.93 in 6.2 mi Calm Calm - N/A   Clear
6:55 PM 81.7 °F 81.9 °F 59.0 °F 46% 29.95 in 6.2 mi Calm Calm - N/A   Clear
7:55 PM 80.2 °F 80.8 °F 59.2 °F 48% 29.95 in 6.2 mi NNW 3.5 mph - N/A   Clear
8:55 PM 80.4 °F 82.2 °F 65.1 °F 59% 29.96 in 6.2 mi North 5.8 mph - N/A   Clear
9:55 PM 77.4 °F - 63.7 °F 63% 29.96 in 6.2 mi NW 4.6 mph - N/A   Clear
10:55 PM 76.8 °F - 65.3 °F 67% 29.95 in 6.2 mi NNW 5.8 mph - N/A   Clear
11:55 PM 77.4 °F - 66.2 °F 68% 29.95 in 6.2 mi North 6.9 mph - N/A   Clear